���t,����,�O�C���x,�����t���O,�O�C���Ύ��x,�����t���O,���ԋ�C���x,�����t���O,���ԑ��Ύ��x,�����t���O,�g�C���^���N����,�����t���O,���֋�C���x,�����t���O,��g�[�����x,�����t���O
2003/9/1,0:00,26.9 ,0,87.0 ,0,29.2 ,0,60.6 ,0,26.9 ,0,=,2,29.9,0
2003/9/1,0:15,27.0 ,0,87.0 ,0,29.3 ,0,59.9 ,0,26.9 ,0,=,2,29.8,0
2003/9/1,0:30,26.9 ,0,88.0 ,0,29.0 ,0,59.0 ,0,27.0 ,0,=,2,29.7,0
2003/9/1,0:45,26.6 ,0,88.0 ,0,29.1 ,0,60.0 ,0,27.0 ,0,=,2,29.7,0
2003/9/1,1:00,26.4 ,0,89.0 ,0,29.2 ,0,61.2 ,0,27.0 ,0,=,2,29.6,0
2003/9/1,1:15,26.1 ,0,88.0 ,0,29.3 ,0,62.1 ,0,26.1 ,0,=,2,29.6,0
2003/9/1,1:30,26.2 ,0,86.0 ,0,29.2 ,0,57.6 ,0,26.1 ,0,=,2,29.5,0
2003/9/1,1:45,26.2 ,0,86.0 ,0,27.9 ,0,46.8 ,0,26.0 ,0,=,2,29.5,0
2003/9/1,2:00,26.2 ,0,86.0 ,0,28.1 ,0,51.6 ,0,26.0 ,0,=,2,29.4,0
2003/9/1,2:15,26.2 ,0,86.0 ,0,28.3 ,0,53.8 ,0,26.0 ,0,=,2,29.4,0
2003/9/1,2:30,26.1 ,0,87.0 ,0,28.4 ,0,55.3 ,0,26.0 ,0,=,2,29.3,0
2003/9/1,2:45,26.0 ,0,88.0 ,0,28.5 ,0,56.5 ,0,26.1 ,0,=,2,29.2,0
2003/9/1,3:00,25.9 ,0,89.0 ,0,28.6 ,0,57.5 ,0,26.1 ,0,=,2,29.1,0
2003/9/1,3:15,25.9 ,0,90.0 ,0,28.7 ,0,58.3 ,0,26.2 ,0,=,2,29.1,0
2003/9/1,3:30,25.9 ,0,90.0 ,0,28.7 ,0,59.0 ,0,26.2 ,0,=,2,29,0
2003/9/1,3:45,25.8 ,0,89.0 ,0,28.7 ,0,59.8 ,0,26.2 ,0,=,2,28.9,0
2003/9/1,4:00,25.6 ,0,89.0 ,0,28.8 ,0,60.4 ,0,26.3 ,0,=,2,28.9,0
2003/9/1,4:15,25.4 ,0,89.0 ,0,28.8 ,0,61.0 ,0,26.3 ,0,=,2,28.8,0
2003/9/1,4:30,25.4 ,0,89.0 ,0,28.8 ,0,61.6 ,0,26.4 ,0,=,2,28.8,0
2003/9/1,4:45,25.3 ,0,90.0 ,0,28.8 ,0,62.3 ,0,26.4 ,0,=,2,28.7,0
2003/9/1,5:00,25.2 ,0,90.0 ,0,28.8 ,0,63.5 ,0,26.5 ,0,=,2,28.7,0
2003/9/1,5:15,25.1 ,0,92.0 ,0,28.8 ,0,63.9 ,0,26.0 ,0,=,2,28.6,0
2003/9/1,5:30,25.2 ,0,91.0 ,0,28.8 ,0,64.8 ,0,26.1 ,0,=,2,28.6,0
2003/9/1,5:45,25.2 ,0,92.0 ,0,28.9 ,0,65.8 ,0,26.1 ,0,=,2,28.5,0
2003/9/1,6:00,25.1 ,0,91.0 ,0,28.9 ,0,66.5 ,0,26.1 ,0,=,2,28.5,0
2003/9/1,6:15,24.9 ,0,90.0 ,0,28.9 ,0,67.1 ,0,26.2 ,0,=,2,28.4,0
2003/9/1,6:30,24.8 ,0,90.0 ,0,28.9 ,0,67.6 ,0,26.2 ,0,=,2,28.4,0
2003/9/1,6:45,25.1 ,0,89.0 ,0,29.0 ,0,67.8 ,0,26.2 ,0,=,2,28.3,0
2003/9/1,7:00,25.5 ,0,87.0 ,0,29.0 ,0,68.2 ,0,26.3 ,0,=,2,28.3,0
2003/9/1,7:15,28.3 ,0,79.0 ,0,29.0 ,0,68.6 ,0,26.3 ,0,=,2,28.2,0
2003/9/1,7:30,27.9 ,0,73.0 ,0,29.0 ,0,68.9 ,0,26.3 ,0,=,2,28.2,0
2003/9/1,7:45,27.6 ,0,77.0 ,0,29.0 ,0,69.1 ,0,26.4 ,0,=,2,28.3,0
2003/9/1,8:00,28.1 ,0,75.0 ,0,29.0 ,0,69.8 ,0,26.4 ,0,=,2,28.3,0
2003/9/1,8:15,28.5 ,0,73.0 ,0,29.0 ,0,70.4 ,0,26.2 ,0,=,2,28.3,0
2003/9/1,8:30,28.9 ,0,73.0 ,0,29.0 ,0,70.5 ,0,26.2 ,0,=,2,28.4,0
2003/9/1,8:45,29.1 ,0,73.0 ,0,29.0 ,0,70.6 ,0,26.2 ,0,=,2,28.4,0
2003/9/1,9:00,29.6 ,0,68.0 ,0,29.0 ,0,70.5 ,0,26.3 ,0,=,2,28.4,0
2003/9/1,9:15,30.0 ,0,68.0 ,0,29.0 ,0,70.6 ,0,26.3 ,0,=,2,28.5,0
2003/9/1,9:30,30.4 ,0,66.0 ,0,29.1 ,0,70.5 ,0,26.3 ,0,=,2,28.6,0
2003/9/1,9:45,30.9 ,0,65.0 ,0,29.2 ,0,70.6 ,0,26.3 ,0,=,2,28.6,0
2003/9/1,10:00,31.4 ,0,65.0 ,0,29.2 ,0,70.5 ,0,26.4 ,0,=,2,28.7,0
2003/9/1,10:15,32.0 ,0,64.0 ,0,29.4 ,0,70.3 ,0,26.4 ,0,=,2,28.8,0
2003/9/1,10:30,32.4 ,0,61.0 ,0,29.5 ,0,70.1 ,0,26.5 ,0,=,2,28.9,0
2003/9/1,10:45,32.3 ,0,62.0 ,0,29.6 ,0,69.9 ,0,26.5 ,0,=,2,29,0
2003/9/1,11:00,32.3 ,0,60.0 ,0,29.8 ,0,69.6 ,0,26.5 ,0,=,2,29.1,0
2003/9/1,11:15,32.1 ,0,62.0 ,0,29.9 ,0,69.5 ,0,26.6 ,0,=,2,29.3,0
2003/9/1,11:30,32.1 ,0,64.0 ,0,30.0 ,0,69.5 ,0,26.6 ,0,=,2,29.4,0
2003/9/1,11:45,31.3 ,0,66.0 ,0,30.1 ,0,69.4 ,0,26.7 ,0,=,2,29.6,0
2003/9/1,12:00,31.2 ,0,68.0 ,0,30.2 ,0,69.5 ,0,26.7 ,0,=,2,29.7,0
2003/9/1,12:15,31.5 ,0,66.0 ,0,30.2 ,0,69.4 ,0,26.7 ,0,=,2,29.8,0
2003/9/1,12:30,31.6 ,0,64.0 ,0,30.3 ,0,69.5 ,0,26.8 ,0,=,2,29.9,0
2003/9/1,12:45,31.7 ,0,63.0 ,0,30.3 ,0,69.5 ,0,26.8 ,0,=,2,30,0
2003/9/1,13:00,31.8 ,0,65.0 ,0,30.4 ,0,69.4 ,0,26.8 ,0,=,2,30.1,0
2003/9/1,13:15,31.6 ,0,67.0 ,0,30.5 ,0,69.4 ,0,26.9 ,0,=,2,30.3,0
2003/9/1,13:30,31.3 ,0,68.0 ,0,30.5 ,0,69.4 ,0,26.9 ,0,=,2,30.4,0
2003/9/1,13:45,30.9 ,0,71.0 ,0,30.6 ,0,69.4 ,0,26.9 ,0,=,2,30.5,0
2003/9/1,14:00,29.9 ,0,79.0 ,0,30.6 ,0,69.7 ,0,27.0 ,0,=,2,30.5,0
2003/9/1,14:15,29.4 ,0,80.0 ,0,30.7 ,0,69.9 ,0,27.0 ,0,=,2,30.6,0
2003/9/1,14:30,29.5 ,0,80.0 ,0,30.7 ,0,70.0 ,0,27.0 ,0,=,2,30.7,0
2003/9/1,14:45,29.5 ,0,79.0 ,0,30.7 ,0,70.8 ,0,27.1 ,0,=,2,30.7,0
2003/9/1,15:00,29.4 ,0,80.0 ,0,30.7 ,0,70.8 ,0,27.1 ,0,=,2,30.8,0
2003/9/1,15:15,29.1 ,0,81.0 ,0,30.7 ,0,70.9 ,0,27.2 ,0,=,2,30.8,0
2003/9/1,15:30,29.1 ,0,82.0 ,0,30.7 ,0,71.1 ,0,27.2 ,0,=,2,30.9,0
2003/9/1,15:45,29.1 ,0,78.0 ,0,30.7 ,0,71.2 ,0,27.2 ,0,=,2,30.9,0
2003/9/1,16:00,29.2 ,0,79.0 ,0,30.7 ,0,71.5 ,0,27.3 ,0,=,2,30.9,0
2003/9/1,16:15,29.3 ,0,80.0 ,0,30.7 ,0,71.5 ,0,27.3 ,0,=,2,30.9,0
2003/9/1,16:30,29.5 ,0,77.0 ,0,30.7 ,0,71.6 ,0,27.4 ,0,=,2,30.9,0
2003/9/1,16:45,29.5 ,0,77.0 ,0,30.7 ,0,71.6 ,0,27.4 ,0,=,2,30.9,0
2003/9/1,17:00,29.5 ,0,78.0 ,0,30.7 ,0,71.5 ,0,27.4 ,0,=,2,30.9,0
2003/9/1,17:15,29.3 ,0,78.0 ,0,30.7 ,0,71.6 ,0,27.5 ,0,=,2,31,0
2003/9/1,17:30,29.2 ,0,78.0 ,0,30.7 ,0,71.6 ,0,27.5 ,0,=,2,31,0
2003/9/1,17:45,29.1 ,0,80.0 ,0,30.7 ,0,71.4 ,0,27.5 ,0,=,2,31,0
2003/9/1,18:00,28.7 ,0,81.0 ,0,30.7 ,0,71.5 ,0,27.6 ,0,=,2,31,0
2003/9/1,18:15,28.7 ,0,80.0 ,0,30.7 ,0,71.6 ,0,27.6 ,0,=,2,31,0
2003/9/1,18:30,28.7 ,0,80.0 ,0,30.7 ,0,71.7 ,0,27.6 ,0,=,2,31,0
2003/9/1,18:45,28.5 ,0,80.0 ,0,30.7 ,0,71.8 ,0,27.7 ,0,=,2,31.1,0
2003/9/1,19:00,28.5 ,0,80.0 ,0,30.6 ,0,71.9 ,0,27.7 ,0,=,2,31,0
2003/9/1,19:15,28.5 ,0,82.0 ,0,30.6 ,0,71.9 ,0,27.7 ,0,=,2,31,0
2003/9/1,19:30,28.3 ,0,81.0 ,0,30.6 ,0,71.9 ,0,26.7 ,0,=,2,31,0
2003/9/1,19:45,28.2 ,0,83.0 ,0,30.6 ,0,71.9 ,0,26.7 ,0,=,2,30.9,0
2003/9/1,20:00,28.2 ,0,83.0 ,0,30.6 ,0,72.1 ,0,26.7 ,0,=,2,30.8,0
2003/9/1,20:15,28.0 ,0,83.0 ,0,30.6 ,0,72.0 ,0,26.8 ,0,=,2,30.7,0
2003/9/1,20:30,27.9 ,0,84.0 ,0,30.0 ,0,61.3 ,0,26.8 ,0,=,2,30.7,0
2003/9/1,20:45,27.8 ,0,85.0 ,0,28.8 ,0,50.1 ,0,26.8 ,0,=,2,30.6,0
2003/9/1,21:00,27.7 ,0,85.0 ,0,28.7 ,0,53.5 ,0,26.9 ,0,=,2,30.5,0
2003/9/1,21:15,27.4 ,0,86.0 ,0,28.5 ,0,51.2 ,0,26.9 ,0,=,2,30.4,0
2003/9/1,21:30,27.3 ,0,86.0 ,0,28.7 ,0,54.5 ,0,27.0 ,0,=,2,30.3,0
2003/9/1,21:45,27.0 ,0,87.0 ,0,28.8 ,0,56.2 ,0,27.0 ,0,=,2,30.2,0
2003/9/1,22:00,27.0 ,0,87.0 ,0,29.1 ,0,58.9 ,0,27.0 ,0,=,2,30.1,0
2003/9/1,22:15,27.0 ,0,88.0 ,0,29.3 ,0,60.6 ,0,27.1 ,0,=,2,30,0
2003/9/1,22:30,26.9 ,0,88.0 ,0,29.5 ,0,62.9 ,0,27.1 ,0,=,2,29.9,0
2003/9/1,22:45,26.7 ,0,89.0 ,0,29.7 ,0,64.5 ,0,27.2 ,0,=,2,29.9,0
2003/9/1,23:00,26.9 ,0,89.0 ,0,29.8 ,0,65.5 ,0,27.2 ,0,=,2,29.8,0
2003/9/1,23:15,26.9 ,0,88.0 ,0,30.0 ,0,67.0 ,0,27.2 ,0,=,2,29.7,0
2003/9/1,23:30,26.8 ,0,89.0 ,0,30.0 ,0,64.5 ,0,27.3 ,0,=,2,29.7,0
2003/9/1,23:45,26.7 ,0,89.0 ,0,28.7 ,0,49.8 ,0,27.3 ,0,=,2,29.6,0
2003/9/2,0:00,26.6 ,0,89.0 ,0,27.6 ,0,44.3 ,0,27.3 ,0,=,2,29.6,0
2003/9/2,0:15,26.5 ,0,90.0 ,0,27.4 ,0,47.1 ,0,27.4 ,0,=,2,29.5,0
2003/9/2,0:30,26.3 ,0,90.0 ,0,27.7 ,0,50.4 ,0,27.4 ,0,=,2,29.5,0
2003/9/2,0:45,26.2 ,0,91.0 ,0,27.9 ,0,53.0 ,0,26.5 ,0,=,2,29.4,0
2003/9/2,1:00,26.1 ,0,92.0 ,0,28.1 ,0,54.9 ,0,26.5 ,0,=,2,29.4,0
2003/9/2,1:15,26.2 ,0,92.0 ,0,28.3 ,0,56.5 ,0,26.5 ,0,=,2,29.3,0
2003/9/2,1:30,26.2 ,0,91.0 ,0,28.4 ,0,57.7 ,0,26.6 ,0,=,2,29.2,0
2003/9/2,1:45,26.2 ,0,91.0 ,0,28.5 ,0,58.7 ,0,26.6 ,0,=,2,29.1,0
2003/9/2,2:00,26.1 ,0,91.0 ,0,28.5 ,0,59.6 ,0,26.7 ,0,=,2,29.1,0
2003/9/2,2:15,26.0 ,0,91.0 ,0,28.6 ,0,60.4 ,0,26.7 ,0,=,2,29,0
2003/9/2,2:30,25.8 ,0,92.0 ,0,28.6 ,0,61.3 ,0,26.7 ,0,=,2,29,0
2003/9/2,2:45,25.9 ,0,90.0 ,0,28.7 ,0,62.0 ,0,26.7 ,0,=,2,28.9,0
2003/9/2,3:00,25.8 ,0,91.0 ,0,28.7 ,0,62.6 ,0,26.8 ,0,=,2,28.9,0
2003/9/2,3:15,25.5 ,0,91.0 ,0,28.7 ,0,63.2 ,0,26.8 ,0,=,2,28.8,0
2003/9/2,3:30,25.4 ,0,92.0 ,0,28.8 ,0,63.7 ,0,26.9 ,0,=,2,28.8,0
2003/9/2,3:45,25.7 ,0,92.0 ,0,28.8 ,0,64.3 ,0,26.9 ,0,=,2,28.7,0
2003/9/2,4:00,25.6 ,0,91.0 ,0,28.8 ,0,65.0 ,0,27.0 ,0,=,2,28.7,0
2003/9/2,4:15,25.6 ,0,91.0 ,0,28.8 ,0,65.6 ,0,27.0 ,0,=,2,28.6,0
2003/9/2,4:30,25.4 ,0,90.0 ,0,28.8 ,0,66.2 ,0,27.0 ,0,=,2,28.6,0
2003/9/2,4:45,25.4 ,0,91.0 ,0,28.8 ,0,66.4 ,0,27.1 ,0,=,2,28.6,0
2003/9/2,5:00,25.2 ,0,93.0 ,0,28.8 ,0,66.6 ,0,27.1 ,0,=,2,28.5,0
2003/9/2,5:15,25.2 ,0,92.0 ,0,28.8 ,0,66.9 ,0,27.1 ,0,=,2,28.5,0
2003/9/2,5:30,25.1 ,0,92.0 ,0,28.8 ,0,67.3 ,0,27.2 ,0,=,2,28.4,0
2003/9/2,5:45,25.0 ,0,93.0 ,0,28.8 ,0,67.6 ,0,27.2 ,0,=,2,28.4,0
2003/9/2,6:00,24.8 ,0,94.0 ,0,28.8 ,0,67.9 ,0,27.2 ,0,=,2,28.3,0
2003/9/2,6:15,25.0 ,0,93.0 ,0,28.8 ,0,68.2 ,0,27.3 ,0,=,2,28.3,0
2003/9/2,6:30,25.1 ,0,94.0 ,0,28.8 ,0,68.5 ,0,27.3 ,0,=,2,28.2,0
2003/9/2,6:45,25.3 ,0,91.0 ,0,28.8 ,0,68.6 ,0,27.3 ,0,=,2,28.2,0
2003/9/2,7:00,25.5 ,0,89.0 ,0,28.8 ,0,68.9 ,0,27.3 ,0,=,2,28.1,0
2003/9/2,7:15,27.9 ,0,83.0 ,0,28.7 ,0,69.1 ,0,27.4 ,0,=,2,28.1,0
2003/9/2,7:30,28.0 ,0,77.0 ,0,28.7 ,0,70.4 ,0,27.4 ,0,=,2,28.1,0
2003/9/2,7:45,27.9 ,0,78.0 ,0,28.7 ,0,71.2 ,0,26.0 ,0,=,2,28.1,0
2003/9/2,8:00,28.1 ,0,77.0 ,0,28.7 ,0,71.6 ,0,26.1 ,0,=,2,28.1,0
2003/9/2,8:15,28.2 ,0,77.0 ,0,28.8 ,0,71.6 ,0,26.1 ,0,=,2,28.2,0
2003/9/2,8:30,28.4 ,0,76.0 ,0,28.8 ,0,71.8 ,0,26.1 ,0,=,2,28.2,0
2003/9/2,8:45,29.0 ,0,73.0 ,0,28.8 ,0,71.9 ,0,26.2 ,0,=,2,28.3,0
2003/9/2,9:00,29.6 ,0,71.0 ,0,28.8 ,0,72.0 ,0,26.2 ,0,=,2,28.3,0
2003/9/2,9:15,30.3 ,0,67.0 ,0,28.8 ,0,72.0 ,0,26.3 ,0,=,2,28.4,0
2003/9/2,9:30,30.8 ,0,64.0 ,0,28.9 ,0,71.9 ,0,26.3 ,0,=,2,28.4,0
2003/9/2,9:45,31.3 ,0,63.0 ,0,29.0 ,0,71.9 ,0,26.4 ,0,=,2,28.5,0
2003/9/2,10:00,31.6 ,0,61.0 ,0,29.1 ,0,71.8 ,0,26.4 ,0,=,2,28.6,0
2003/9/2,10:15,32.1 ,0,59.0 ,0,29.2 ,0,71.7 ,0,26.4 ,0,=,2,28.6,0
2003/9/2,10:30,32.1 ,0,58.0 ,0,29.3 ,0,71.5 ,0,26.5 ,0,=,2,28.7,0
2003/9/2,10:45,32.2 ,0,57.0 ,0,29.5 ,0,71.2 ,0,26.5 ,0,=,2,28.9,0
2003/9/2,11:00,32.2 ,0,61.0 ,0,29.7 ,0,70.9 ,0,26.6 ,0,=,2,29,0
2003/9/2,11:15,32.2 ,0,63.0 ,0,29.8 ,0,70.8 ,0,26.6 ,0,=,2,29.1,0
2003/9/2,11:30,32.1 ,0,63.0 ,0,29.8 ,0,70.8 ,0,26.6 ,0,=,2,29.3,0
2003/9/2,11:45,32.4 ,0,60.0 ,0,29.9 ,0,70.7 ,0,26.7 ,0,=,2,29.4,0
2003/9/2,12:00,32.9 ,0,60.0 ,0,30.0 ,0,70.8 ,0,26.7 ,0,=,2,29.5,0
2003/9/2,12:15,32.9 ,0,61.0 ,0,30.0 ,0,70.9 ,0,26.7 ,0,=,2,29.6,0
2003/9/2,12:30,33.5 ,0,61.0 ,0,30.2 ,0,70.7 ,0,26.8 ,0,=,2,29.8,0
2003/9/2,12:45,33.7 ,0,58.0 ,0,30.3 ,0,70.5 ,0,26.8 ,0,=,2,29.9,0
2003/9/2,13:00,33.9 ,0,57.0 ,0,30.4 ,0,70.4 ,0,26.9 ,0,=,2,30,0
2003/9/2,13:15,33.4 ,0,60.0 ,0,30.6 ,0,70.3 ,0,26.9 ,0,=,2,30.1,0
2003/9/2,13:30,33.3 ,0,59.0 ,0,30.6 ,0,66.3 ,0,27.0 ,0,=,2,30.3,0
2003/9/2,13:45,33.0 ,0,59.0 ,0,29.8 ,0,54.2 ,0,26.1 ,0,=,2,30.4,0
2003/9/2,14:00,33.3 ,0,60.0 ,0,29.2 ,0,52.4 ,0,26.1 ,0,=,2,30.5,0
2003/9/2,14:15,33.3 ,0,59.0 ,0,29.5 ,0,55.6 ,0,26.2 ,0,=,2,30.6,0
2003/9/2,14:30,33.4 ,0,59.0 ,0,29.8 ,0,56.9 ,0,26.2 ,0,=,2,30.7,0
2003/9/2,14:45,33.2 ,0,60.0 ,0,30.0 ,0,57.6 ,0,26.3 ,0,=,2,30.8,0
2003/9/2,15:00,33.1 ,0,63.0 ,0,30.2 ,0,59.2 ,0,26.3 ,0,=,2,30.9,0
2003/9/2,15:15,33.0 ,0,61.0 ,0,30.4 ,0,59.9 ,0,26.4 ,0,=,2,31,0
2003/9/2,15:30,32.8 ,0,60.0 ,0,30.6 ,0,61.4 ,0,26.4 ,0,=,2,31.1,0
2003/9/2,15:45,32.8 ,0,61.0 ,0,30.7 ,0,62.3 ,0,26.5 ,0,=,2,31.2,0
2003/9/2,16:00,32.5 ,0,64.0 ,0,30.3 ,0,56.6 ,0,26.5 ,0,=,2,31.3,0
2003/9/2,16:15,32.2 ,0,66.0 ,0,29.3 ,0,48.1 ,0,26.3 ,0,=,2,31.4,0
2003/9/2,16:30,31.7 ,0,65.0 ,0,28.6 ,0,45.1 ,0,26.3 ,0,=,2,31.4,0
2003/9/2,16:45,31.6 ,0,64.0 ,0,28.9 ,0,50.0 ,0,26.4 ,0,=,2,31.5,0
2003/9/2,17:00,31.6 ,0,64.0 ,0,29.3 ,0,51.7 ,0,26.4 ,0,=,2,31.6,0
2003/9/2,17:15,31.6 ,0,65.0 ,0,29.5 ,0,53.8 ,0,26.5 ,0,=,2,31.7,0
2003/9/2,17:30,31.6 ,0,65.0 ,0,29.7 ,0,55.9 ,0,26.5 ,0,=,2,31.7,0
2003/9/2,17:45,31.3 ,0,65.0 ,0,29.9 ,0,60.8 ,0,26.5 ,0,=,2,31.8,0
2003/9/2,18:00,31.1 ,0,66.0 ,0,30.1 ,0,62.7 ,0,26.3 ,0,=,2,31.8,0
2003/9/2,18:15,31.0 ,0,66.0 ,0,30.2 ,0,64.1 ,0,26.4 ,0,=,2,31.8,0
2003/9/2,18:30,30.8 ,0,67.0 ,0,30.3 ,0,65.2 ,0,26.4 ,0,=,2,31.8,0
2003/9/2,18:45,30.5 ,0,70.0 ,0,30.4 ,0,65.9 ,0,26.5 ,0,=,2,31.8,0
2003/9/2,19:00,30.4 ,0,71.0 ,0,30.4 ,0,66.5 ,0,26.5 ,0,=,2,31.8,0
2003/9/2,19:15,30.1 ,0,71.0 ,0,30.4 ,0,67.2 ,0,26.5 ,0,=,2,31.8,0
2003/9/2,19:30,30.0 ,0,72.0 ,0,29.8 ,0,55.5 ,0,26.6 ,0,=,2,31.8,0
2003/9/2,19:45,29.7 ,0,74.0 ,0,29.1 ,0,52.4 ,0,26.6 ,0,=,2,31.8,0
2003/9/2,20:00,29.7 ,0,74.0 ,0,29.4 ,0,55.2 ,0,26.7 ,0,=,2,31.8,0
2003/9/2,20:15,29.5 ,0,76.0 ,0,29.6 ,0,59.0 ,0,26.7 ,0,=,2,31.8,0
2003/9/2,20:30,29.3 ,0,76.0 ,0,29.1 ,0,51.4 ,0,26.8 ,0,=,2,31.7,0
2003/9/2,20:45,29.1 ,0,77.0 ,0,28.5 ,0,45.2 ,0,26.8 ,0,=,2,31.6,0
2003/9/2,21:00,28.9 ,0,79.0 ,0,27.7 ,0,43.0 ,0,26.9 ,0,=,2,31.5,0
2003/9/2,21:15,28.7 ,0,80.0 ,0,27.0 ,0,41.4 ,0,26.9 ,0,=,2,31.4,0
2003/9/2,21:30,28.5 ,0,80.0 ,0,26.5 ,0,41.7 ,0,27.0 ,0,=,2,31.4,0
2003/9/2,21:45,28.5 ,0,81.0 ,0,26.5 ,0,44.2 ,0,27.0 ,0,=,2,31.3,0
2003/9/2,22:00,28.5 ,0,82.0 ,0,26.8 ,0,48.5 ,0,27.1 ,0,=,2,31.2,0
2003/9/2,22:15,28.2 ,0,83.0 ,0,27.2 ,0,51.4 ,0,26.2 ,0,=,2,31.1,0
2003/9/2,22:30,28.3 ,0,84.0 ,0,27.6 ,0,53.2 ,0,26.2 ,0,=,2,31,0
2003/9/2,22:45,28.2 ,0,84.0 ,0,27.9 ,0,54.9 ,0,26.3 ,0,=,2,30.9,0
2003/9/2,23:00,28.1 ,0,83.0 ,0,28.1 ,0,56.1 ,0,26.3 ,0,=,2,30.9,0
2003/9/2,23:15,28.1 ,0,83.0 ,0,28.3 ,0,57.1 ,0,26.4 ,0,=,2,30.8,0
2003/9/2,23:30,27.8 ,0,85.0 ,0,28.5 ,0,58.0 ,0,26.4 ,0,=,2,30.7,0
2003/9/2,23:45,27.7 ,0,85.0 ,0,28.6 ,0,58.6 ,0,26.5 ,0,=,2,30.6,0
2003/9/3,0:00,27.6 ,0,85.0 ,0,28.8 ,0,59.4 ,0,26.5 ,0,=,2,30.5,0
2003/9/3,0:15,27.4 ,0,86.0 ,0,28.9 ,0,60.0 ,0,26.6 ,0,=,2,30.5,0
2003/9/3,0:30,27.2 ,0,86.0 ,0,29.0 ,0,60.6 ,0,26.6 ,0,=,2,30.4,0
2003/9/3,0:45,27.2 ,0,87.0 ,0,29.1 ,0,61.2 ,0,26.7 ,0,=,2,30.3,0
2003/9/3,1:00,27.1 ,0,87.0 ,0,28.3 ,0,50.2 ,0,26.7 ,0,=,2,30.2,0
2003/9/3,1:15,27.1 ,0,86.0 ,0,28.4 ,0,54.0 ,0,26.4 ,0,=,2,30.1,0
2003/9/3,1:30,27.2 ,0,85.0 ,0,28.6 ,0,55.5 ,0,26.4 ,0,=,2,30.1,0
2003/9/3,1:45,27.1 ,0,85.0 ,0,28.7 ,0,57.0 ,0,26.2 ,0,=,2,30,0
2003/9/3,2:00,27.0 ,0,86.0 ,0,28.1 ,0,49.3 ,0,26.2 ,0,=,2,29.9,0
2003/9/3,2:15,26.9 ,0,86.0 ,0,27.1 ,0,45.4 ,0,26.2 ,0,=,2,29.9,0
2003/9/3,2:30,26.9 ,0,86.0 ,0,26.6 ,0,45.0 ,0,26.3 ,0,=,2,29.8,0
2003/9/3,2:45,26.6 ,0,86.0 ,0,26.5 ,0,46.5 ,0,26.3 ,0,=,2,29.8,0
2003/9/3,3:00,26.7 ,0,84.0 ,0,26.9 ,0,49.1 ,0,26.4 ,0,=,2,29.7,0
2003/9/3,3:15,26.8 ,0,84.0 ,0,27.1 ,0,50.7 ,0,26.4 ,0,=,2,29.7,0
2003/9/3,3:30,26.7 ,0,84.0 ,0,27.3 ,0,52.1 ,0,26.5 ,0,=,2,29.6,0
2003/9/3,3:45,26.6 ,0,84.0 ,0,27.5 ,0,53.1 ,0,26.5 ,0,=,2,29.6,0
2003/9/3,4:00,26.5 ,0,85.0 ,0,27.6 ,0,54.0 ,0,26.6 ,0,=,2,29.5,0
2003/9/3,4:15,26.4 ,0,86.0 ,0,27.7 ,0,54.8 ,0,26.6 ,0,=,2,29.5,0
2003/9/3,4:30,26.3 ,0,86.0 ,0,27.8 ,0,55.6 ,0,26.7 ,0,=,2,29.4,0
2003/9/3,4:45,26.1 ,0,87.0 ,0,27.9 ,0,56.2 ,0,26.7 ,0,=,2,29.3,0
2003/9/3,5:00,25.9 ,0,88.0 ,0,27.9 ,0,56.7 ,0,26.8 ,0,=,2,29.3,0
2003/9/3,5:15,25.7 ,0,89.0 ,0,28.0 ,0,57.3 ,0,26.8 ,0,=,2,29.2,0
2003/9/3,5:30,25.7 ,0,88.0 ,0,28.0 ,0,57.6 ,0,26.8 ,0,=,2,29.2,0
2003/9/3,5:45,25.7 ,0,88.0 ,0,28.1 ,0,58.0 ,0,26.9 ,0,=,2,29.1,0
2003/9/3,6:00,25.7 ,0,88.0 ,0,28.1 ,0,58.5 ,0,26.9 ,0,=,2,29.1,0
2003/9/3,6:15,25.8 ,0,88.0 ,0,28.1 ,0,58.9 ,0,27.0 ,0,=,2,29,0
2003/9/3,6:30,25.9 ,0,88.0 ,0,28.2 ,0,59.4 ,0,27.0 ,0,=,2,28.9,0
2003/9/3,6:45,26.0 ,0,87.0 ,0,28.2 ,0,59.8 ,0,27.0 ,0,=,2,28.9,0
2003/9/3,7:00,26.4 ,0,86.0 ,0,28.2 ,0,60.1 ,0,27.1 ,0,=,2,28.8,0
2003/9/3,7:15,30.4 ,0,71.0 ,0,28.2 ,0,60.4 ,0,27.1 ,0,=,2,28.8,0
2003/9/3,7:30,29.9 ,0,68.0 ,0,28.2 ,0,60.7 ,0,27.2 ,0,=,2,28.8,0
2003/9/3,7:45,29.8 ,0,69.0 ,0,28.3 ,0,61.2 ,0,27.2 ,0,=,2,28.8,0
2003/9/3,8:00,30.0 ,0,69.0 ,0,28.3 ,0,62.1 ,0,27.2 ,0,=,2,28.8,0
2003/9/3,8:15,30.3 ,0,67.0 ,0,28.4 ,0,64.3 ,0,27.3 ,0,=,2,28.9,0
2003/9/3,8:30,30.3 ,0,67.0 ,0,28.5 ,0,66.5 ,0,27.3 ,0,=,2,28.9,0
2003/9/3,8:45,30.5 ,0,65.0 ,0,28.6 ,0,66.8 ,0,26.6 ,0,=,2,28.9,0
2003/9/3,9:00,30.9 ,0,63.0 ,0,28.7 ,0,68.2 ,0,26.6 ,0,=,2,28.9,0
2003/9/3,9:15,31.1 ,0,61.0 ,0,28.8 ,0,68.5 ,0,26.6 ,0,=,2,29,0
2003/9/3,9:30,31.3 ,0,60.0 ,0,28.9 ,0,68.8 ,0,26.7 ,0,=,2,29,0
2003/9/3,9:45,31.8 ,0,59.0 ,0,29.0 ,0,69.1 ,0,26.7 ,0,=,2,29.1,0
2003/9/3,10:00,32.1 ,0,60.0 ,0,29.2 ,0,69.2 ,0,26.7 ,0,=,2,29.2,0
2003/9/3,10:15,32.6 ,0,59.0 ,0,29.4 ,0,69.6 ,0,26.8 ,0,=,2,29.3,0
2003/9/3,10:30,32.8 ,0,59.0 ,0,29.6 ,0,69.7 ,0,26.8 ,0,=,2,29.4,0
2003/9/3,10:45,32.9 ,0,59.0 ,0,29.8 ,0,69.2 ,0,26.8 ,0,=,2,29.5,0
2003/9/3,11:00,33.0 ,0,59.0 ,0,30.0 ,0,69.0 ,0,26.1 ,0,=,2,29.6,0
2003/9/3,11:15,33.0 ,0,60.0 ,0,30.2 ,0,68.4 ,0,26.1 ,0,=,2,29.8,0
2003/9/3,11:30,32.9 ,0,60.0 ,0,30.4 ,0,68.0 ,0,26.2 ,0,=,2,29.9,0
2003/9/3,11:45,33.3 ,0,59.0 ,0,30.6 ,0,67.7 ,0,26.2 ,0,=,2,30.1,0
2003/9/3,12:00,33.3 ,0,61.0 ,0,30.8 ,0,67.8 ,0,26.3 ,0,=,2,30.2,0
2003/9/3,12:15,33.2 ,0,61.0 ,0,30.0 ,0,55.3 ,0,26.3 ,0,=,2,30.4,0
2003/9/3,12:30,32.9 ,0,62.0 ,0,29.5 ,0,50.7 ,0,26.4 ,0,=,2,30.5,0
2003/9/3,12:45,32.7 ,0,63.0 ,0,29.0 ,0,48.0 ,0,26.4 ,0,=,2,30.6,0
2003/9/3,13:00,33.3 ,0,61.0 ,0,28.7 ,0,46.5 ,0,26.5 ,0,=,2,30.7,0
2003/9/3,13:15,33.4 ,0,59.0 ,0,28.8 ,0,49.3 ,0,26.5 ,0,=,2,30.8,0
2003/9/3,13:30,33.0 ,0,61.0 ,0,29.2 ,0,52.0 ,0,26.5 ,0,=,2,30.9,0
2003/9/3,13:45,33.0 ,0,63.0 ,0,29.6 ,0,55.5 ,0,26.6 ,0,=,2,31,0
2003/9/3,14:00,33.2 ,0,58.0 ,0,30.0 ,0,57.7 ,0,26.6 ,0,=,2,31.1,0
2003/9/3,14:15,33.0 ,0,61.0 ,0,30.3 ,0,60.4 ,0,26.7 ,0,=,2,31.2,0
2003/9/3,14:30,33.0 ,0,63.0 ,0,30.6 ,0,62.5 ,0,26.7 ,0,=,2,31.3,0
2003/9/3,14:45,33.0 ,0,63.0 ,0,30.9 ,0,63.0 ,0,26.8 ,0,=,2,31.4,0
2003/9/3,15:00,32.8 ,0,65.0 ,0,31.1 ,0,64.1 ,0,26.5 ,0,=,2,31.5,0
2003/9/3,15:15,32.8 ,0,63.0 ,0,31.4 ,0,64.4 ,0,26.6 ,0,=,2,31.6,0
2003/9/3,15:30,32.6 ,0,65.0 ,0,31.5 ,0,64.6 ,0,26.6 ,0,=,2,31.7,0
2003/9/3,15:45,32.7 ,0,64.0 ,0,31.7 ,0,64.7 ,0,26.7 ,0,=,2,31.8,0
2003/9/3,16:00,32.6 ,0,62.0 ,0,31.7 ,0,64.6 ,0,26.7 ,0,=,2,31.9,0
2003/9/3,16:15,32.6 ,0,62.0 ,0,31.8 ,0,64.9 ,0,26.7 ,0,=,2,32,0
2003/9/3,16:30,32.3 ,0,66.0 ,0,31.9 ,0,64.9 ,0,26.8 ,0,=,2,32.1,0
2003/9/3,16:45,32.1 ,0,63.0 ,0,32.0 ,0,65.1 ,0,26.8 ,0,=,2,32.2,0
2003/9/3,17:00,31.9 ,0,67.0 ,0,32.0 ,0,65.1 ,0,26.9 ,0,=,2,32.3,0
2003/9/3,17:15,31.6 ,0,67.0 ,0,32.1 ,0,65.5 ,0,26.9 ,0,=,2,32.4,0
2003/9/3,17:30,31.5 ,0,69.0 ,0,32.1 ,0,65.7 ,0,26.9 ,0,=,2,32.6,0
2003/9/3,17:45,31.4 ,0,69.0 ,0,32.1 ,0,65.8 ,0,27.0 ,0,=,2,32.6,0
2003/9/3,18:00,31.0 ,0,72.0 ,0,32.1 ,0,65.9 ,0,27.1 ,0,=,2,32.7,0
2003/9/3,18:15,30.8 ,0,73.0 ,0,32.1 ,0,66.2 ,0,26.7 ,0,=,2,32.7,0
2003/9/3,18:30,30.7 ,0,74.0 ,0,32.1 ,0,66.7 ,0,26.8 ,0,=,2,32.8,0
2003/9/3,18:45,30.5 ,0,76.0 ,0,32.1 ,0,67.3 ,0,26.8 ,0,=,2,32.8,0
2003/9/3,19:00,30.3 ,0,78.0 ,0,32.1 ,0,67.4 ,0,26.8 ,0,=,2,32.8,0
2003/9/3,19:15,30.1 ,0,79.0 ,0,32.1 ,0,67.5 ,0,26.9 ,0,=,2,32.8,0
2003/9/3,19:30,29.9 ,0,79.0 ,0,32.0 ,0,67.9 ,0,26.9 ,0,=,2,32.7,0
2003/9/3,19:45,29.8 ,0,80.0 ,0,32.0 ,0,68.0 ,0,26.6 ,0,=,2,32.7,0
2003/9/3,20:00,29.6 ,0,81.0 ,0,31.9 ,0,68.4 ,0,26.6 ,0,=,2,32.6,0
2003/9/3,20:15,29.2 ,0,84.0 ,0,31.9 ,0,68.6 ,0,26.7 ,0,=,2,32.5,0
2003/9/3,20:30,29.3 ,0,83.0 ,0,31.8 ,0,68.8 ,0,26.7 ,0,=,2,32.4,0
2003/9/3,20:45,29.2 ,0,83.0 ,0,31.8 ,0,68.9 ,0,26.8 ,0,=,2,32.3,0
2003/9/3,21:00,28.9 ,0,82.0 ,0,31.7 ,0,69.1 ,0,26.8 ,0,=,2,32.2,0
2003/9/3,21:15,29.0 ,0,82.0 ,0,31.7 ,0,69.2 ,0,26.9 ,0,=,2,32.1,0
2003/9/3,21:30,28.6 ,0,82.0 ,0,30.8 ,0,56.5 ,0,26.9 ,0,=,2,32,0
2003/9/3,21:45,28.4 ,0,82.0 ,0,29.2 ,0,48.2 ,0,27.0 ,0,=,2,32,0
2003/9/3,22:00,28.3 ,0,82.0 ,0,28.8 ,0,48.1 ,0,27.0 ,0,=,2,31.9,0
2003/9/3,22:15,28.4 ,0,82.0 ,0,29.2 ,0,52.2 ,0,27.1 ,0,=,2,31.8,0
2003/9/3,22:30,28.2 ,0,83.0 ,0,29.5 ,0,54.7 ,0,27.1 ,0,=,2,31.7,0
2003/9/3,22:45,28.0 ,0,83.0 ,0,28.9 ,0,47.7 ,0,27.2 ,0,=,2,31.6,0
2003/9/3,23:00,28.0 ,0,82.0 ,0,27.8 ,0,42.0 ,0,27.2 ,0,=,2,31.5,0
2003/9/3,23:15,27.7 ,0,84.0 ,0,28.2 ,0,46.6 ,0,27.3 ,0,=,2,31.4,0
2003/9/3,23:30,27.5 ,0,81.0 ,0,27.6 ,0,42.7 ,0,27.3 ,0,=,2,31.3,0
2003/9/3,23:45,27.4 ,0,81.0 ,0,26.7 ,0,39.7 ,0,27.4 ,0,=,2,31.2,0
2003/9/4,0:00,27.4 ,0,80.0 ,0,26.2 ,0,40.0 ,0,27.4 ,0,=,2,31.1,0
2003/9/4,0:15,27.2 ,0,81.0 ,0,26.3 ,0,42.3 ,0,27.5 ,0,=,2,31,0
2003/9/4,0:30,27.3 ,0,81.0 ,0,26.3 ,0,44.6 ,0,27.5 ,0,=,2,30.9,0
2003/9/4,0:45,27.3 ,0,82.0 ,0,26.8 ,0,49.1 ,0,26.9 ,0,=,2,30.8,0
2003/9/4,1:00,27.2 ,0,82.0 ,0,27.1 ,0,51.2 ,0,26.8 ,0,=,2,30.7,0
2003/9/4,1:15,27.1 ,0,84.0 ,0,27.4 ,0,52.5 ,0,26.9 ,0,=,2,30.6,0
2003/9/4,1:30,27.0 ,0,85.0 ,0,27.6 ,0,54.0 ,0,26.9 ,0,=,2,30.5,0
2003/9/4,1:45,26.9 ,0,84.0 ,0,27.8 ,0,54.9 ,0,26.9 ,0,=,2,30.4,0
2003/9/4,2:00,26.9 ,0,84.0 ,0,28.0 ,0,55.8 ,0,27.0 ,0,=,2,30.3,0
2003/9/4,2:15,27.0 ,0,85.0 ,0,28.1 ,0,56.7 ,0,27.0 ,0,=,2,30.2,0
2003/9/4,2:30,27.0 ,0,85.0 ,0,28.2 ,0,57.3 ,0,27.1 ,0,=,2,30.1,0
2003/9/4,2:45,27.0 ,0,86.0 ,0,28.3 ,0,57.9 ,0,27.1 ,0,=,2,30.1,0
2003/9/4,3:00,27.1 ,0,88.0 ,0,28.3 ,0,58.4 ,0,27.2 ,0,=,2,30,0
2003/9/4,3:15,27.2 ,0,88.0 ,0,28.4 ,0,58.9 ,0,27.2 ,0,=,2,29.9,0
2003/9/4,3:30,27.1 ,0,88.0 ,0,28.5 ,0,59.4 ,0,27.2 ,0,=,2,29.9,0
2003/9/4,3:45,26.8 ,0,85.0 ,0,28.6 ,0,60.3 ,0,27.3 ,0,=,2,29.8,0
2003/9/4,4:00,26.6 ,0,85.0 ,0,28.6 ,0,60.7 ,0,27.3 ,0,=,2,29.8,0
2003/9/4,4:15,26.6 ,0,87.0 ,0,28.7 ,0,61.1 ,0,27.4 ,0,=,2,29.7,0
2003/9/4,4:30,26.7 ,0,89.0 ,0,28.8 ,0,61.6 ,0,27.4 ,0,=,2,29.7,0
2003/9/4,4:45,26.5 ,0,89.0 ,0,28.8 ,0,61.9 ,0,27.4 ,0,=,2,29.7,0
2003/9/4,5:00,26.4 ,0,91.0 ,0,28.8 ,0,62.3 ,0,27.5 ,0,=,2,29.6,0
2003/9/4,5:15,26.4 ,0,92.0 ,0,28.9 ,0,62.8 ,0,27.5 ,0,=,2,29.6,0
2003/9/4,5:30,26.5 ,0,92.0 ,0,28.9 ,0,62.9 ,0,27.5 ,0,=,2,29.5,0
2003/9/4,5:45,26.5 ,0,92.0 ,0,28.9 ,0,63.2 ,0,27.6 ,0,=,2,29.5,0
2003/9/4,6:00,26.4 ,0,91.0 ,0,29.0 ,0,63.4 ,0,27.6 ,0,=,2,29.4,0
2003/9/4,6:15,26.1 ,0,92.0 ,0,29.0 ,0,63.6 ,0,27.7 ,0,=,2,29.4,0
2003/9/4,6:30,26.4 ,0,92.0 ,0,29.0 ,0,63.7 ,0,27.7 ,0,=,2,29.3,0
2003/9/4,6:45,26.7 ,0,90.0 ,0,29.0 ,0,63.9 ,0,27.7 ,0,=,2,29.3,0
2003/9/4,7:00,27.0 ,0,88.0 ,0,29.0 ,0,64.2 ,0,27.8 ,0,=,2,29.3,0
2003/9/4,7:15,29.5 ,0,77.0 ,0,29.0 ,0,64.7 ,0,27.8 ,0,=,2,29.2,0
2003/9/4,7:30,28.6 ,0,76.0 ,0,29.0 ,0,65.4 ,0,27.8 ,0,=,2,29.2,0
2003/9/4,7:45,28.8 ,0,76.0 ,0,29.1 ,0,66.8 ,0,27.9 ,0,=,2,29.3,0
2003/9/4,8:00,29.3 ,0,74.0 ,0,29.1 ,0,68.3 ,0,27.2 ,0,=,2,29.3,0
2003/9/4,8:15,29.5 ,0,73.0 ,0,29.1 ,0,69.4 ,0,26.2 ,0,=,2,29.3,0
2003/9/4,8:30,29.7 ,0,71.0 ,0,29.2 ,0,70.8 ,0,26.2 ,0,=,2,29.3,0
2003/9/4,8:45,29.8 ,0,71.0 ,0,29.2 ,0,71.0 ,0,26.3 ,0,=,2,29.4,0
2003/9/4,9:00,30.2 ,0,69.0 ,0,29.3 ,0,71.1 ,0,26.3 ,0,=,2,29.4,0
2003/9/4,9:15,30.8 ,0,67.0 ,0,29.3 ,0,71.2 ,0,26.3 ,0,=,2,29.4,0
2003/9/4,9:30,31.1 ,0,66.0 ,0,29.4 ,0,71.2 ,0,26.4 ,0,=,2,29.5,0
2003/9/4,9:45,31.5 ,0,63.0 ,0,29.5 ,0,71.0 ,0,26.4 ,0,=,2,29.5,0
2003/9/4,10:00,31.6 ,0,59.0 ,0,29.6 ,0,70.8 ,0,26.5 ,0,=,2,29.6,0
2003/9/4,10:15,31.9 ,0,60.0 ,0,29.7 ,0,70.3 ,0,26.5 ,0,=,2,29.7,0
2003/9/4,10:30,32.1 ,0,59.0 ,0,29.9 ,0,69.9 ,0,26.6 ,0,=,2,29.8,0
2003/9/4,10:45,32.1 ,0,60.0 ,0,30.0 ,0,69.5 ,0,26.6 ,0,=,2,29.8,0
2003/9/4,11:00,32.3 ,0,58.0 ,0,30.2 ,0,69.2 ,0,26.7 ,0,=,2,29.9,0
2003/9/4,11:15,32.6 ,0,59.0 ,0,30.4 ,0,68.8 ,0,26.7 ,0,=,2,30.1,0
2003/9/4,11:30,32.6 ,0,54.0 ,0,30.6 ,0,68.5 ,0,26.8 ,0,=,2,30.2,0
2003/9/4,11:45,32.8 ,0,54.0 ,0,30.7 ,0,68.2 ,0,26.8 ,0,=,2,30.3,0
2003/9/4,12:00,32.9 ,0,56.0 ,0,30.9 ,0,68.0 ,0,26.9 ,0,=,2,30.5,0
2003/9/4,12:15,32.8 ,0,56.0 ,0,31.0 ,0,67.7 ,0,26.9 ,0,=,2,30.6,0
2003/9/4,12:30,32.5 ,0,55.0 ,0,31.2 ,0,67.3 ,0,27.0 ,0,=,2,30.7,0
2003/9/4,12:45,32.6 ,0,52.0 ,0,31.3 ,0,67.0 ,0,27.0 ,0,=,2,30.9,0
2003/9/4,13:00,32.6 ,0,56.0 ,0,31.4 ,0,66.8 ,0,27.0 ,0,=,2,31,0
2003/9/4,13:15,32.6 ,0,58.0 ,0,31.5 ,0,66.4 ,0,27.1 ,0,=,2,31.1,0
2003/9/4,13:30,32.1 ,0,58.0 ,0,31.6 ,0,66.1 ,0,27.1 ,0,=,2,31.2,0
2003/9/4,13:45,32.1 ,0,58.0 ,0,31.7 ,0,65.8 ,0,27.2 ,0,=,2,31.4,0
2003/9/4,14:00,32.1 ,0,56.0 ,0,31.8 ,0,65.7 ,0,27.2 ,0,=,2,31.5,0
2003/9/4,14:15,32.2 ,0,59.0 ,0,31.9 ,0,65.4 ,0,27.3 ,0,=,2,31.6,0
2003/9/4,14:30,32.0 ,0,59.0 ,0,31.9 ,0,65.3 ,0,27.3 ,0,=,2,31.7,0
2003/9/4,14:45,31.6 ,0,62.0 ,0,32.0 ,0,65.1 ,0,27.3 ,0,=,2,31.8,0
2003/9/4,15:00,31.6 ,0,58.0 ,0,32.1 ,0,65.1 ,0,27.4 ,0,=,2,31.9,0
2003/9/4,15:15,31.7 ,0,58.0 ,0,32.1 ,0,65.1 ,0,27.4 ,0,=,2,32,0
2003/9/4,15:30,31.9 ,0,55.0 ,0,32.1 ,0,64.9 ,0,27.4 ,0,=,2,32,0
2003/9/4,15:45,32.1 ,0,58.0 ,0,32.2 ,0,64.9 ,0,27.5 ,0,=,2,32.1,0
2003/9/4,16:00,32.0 ,0,59.0 ,0,32.2 ,0,64.9 ,0,27.5 ,0,=,2,32.2,0
2003/9/4,16:15,31.6 ,0,57.0 ,0,32.2 ,0,64.8 ,0,27.6 ,0,=,2,32.3,0
2003/9/4,16:30,31.3 ,0,60.0 ,0,32.2 ,0,64.7 ,0,27.6 ,0,=,2,32.4,0
2003/9/4,16:45,30.8 ,0,60.0 ,0,32.2 ,0,64.7 ,0,27.6 ,0,=,2,32.5,0
2003/9/4,17:00,30.6 ,0,62.0 ,0,32.2 ,0,64.7 ,0,27.7 ,0,=,2,32.5,0
2003/9/4,17:15,30.5 ,0,64.0 ,0,32.2 ,0,64.7 ,0,27.7 ,0,=,2,32.6,0
2003/9/4,17:30,30.5 ,0,66.0 ,0,32.1 ,0,64.6 ,0,27.8 ,0,=,2,32.6,0